Mandan, ND

11:09 PM CST on December 03, 2016 (GMT -0600)
Mandan

Weather History for KY19 - March, 2013

Change the Weather History Date:

Tuesday, March 12, 2013

  Actual Average (KBIS) Record (KBIS)
Temperature  
Mean Temperature 17 °F 28 °F  
Max Temperature 24 °F 38 °F 75 °F (2007)
Min Temperature 10 °F 18 °F -25 °F (1956)
Degree Days  
Heating Degree Days 48 37  
Month to date heating degree days 473  
Since 1 July heating degree days 6904  
Cooling Degree Days 0 0  
Month to date cooling degree days 0  
Year to date cooling degree days 0  
Moisture  
Dew Point 15 °F    
Average Humidity 82    
Maximum Humidity 100    
Minimum Humidity 59    
Precipitation  
Precipitation 0.57 in 0.03 in 0.68 in (1929)
Month to date precipitation 0.30  
Year to date precipitation 1.24  
Snow  
Snow 0.00 in 0.30 in 2.60 in (1991)
Month to date snowfall 3.8  
Since 1 July snowfall 41.3  
Snow Depth -    
Sea Level Pressure  
Sea Level Pressure 30.20 in    
Wind  
Wind Speed 20 mph (NW)    
Max Wind Speed 30 mph    
Max Gust Speed 41 mph    
Visibility 8 miles    
Events Rain , Snow    
T = Trace of Precipitation, MM = Missing Value Source: NWS Daily Summary

Daily Weather History Graph

Daily Weather History Graph

Search for Another Location

Airport or City:

Trip Planner

Search our weather history database for the weather conditions in past years. The results will help you decide how hot, cold, wet, or windy it might be!

Date:

Astronomy

Mar. 12, 2013 Rise Set
Actual Time 8:01 AM CDT 7:45 PM CDT
Civil Twilight 7:31 AM CDT 8:15 PM CDT
Nautical Twilight 6:56 AM CDT 8:50 PM CDT
Astronomical Twilight 6:20 AM CDT 9:26 PM CDT
Moon 8:03 AM CDT (3/12) 9:10 PM CDT (3/12)
Length of Visible Light 12h 44m
Length of Day
11h 43m
New Moon, 1% of the Moon is Illuminated
Mar 12
New Moon
Mar 19
First Quarter
Mar 27
Full
Apr 2
Last Quarter
Apr 10
New

Hourly Weather History & Observations

Time (CDT) Temp. Windchill Dew Point Humidity Pressure Visibility Wind Dir Wind Speed Gust Speed Precip Events Conditions
12:35 AM 24.8 °F 9.0 °F 24.8 °F 100% 29.97 in 2.5 mi NW 25.3 mph 36.8 mph 0.06 in   Overcast
12:55 AM 24.8 °F 7.9 °F 24.8 °F 100% 29.98 in 5.0 mi NW 29.9 mph 38.0 mph 0.07 in Snow Light Snow
1:15 AM 24.8 °F 9.0 °F 23.0 °F 93% 29.99 in 8.0 mi NW 25.3 mph 41.4 mph N/A Snow Light Snow
1:35 AM 24.8 °F 9.6 °F 24.8 °F 100% 30.00 in 4.0 mi NW 23.0 mph 32.2 mph 0.03 in Snow Light Snow
1:55 AM 24.8 °F 10.0 °F 23.0 °F 93% 30.00 in 4.0 mi NW 21.9 mph 34.5 mph 0.07 in Snow Light Snow
2:15 AM 23.0 °F 7.6 °F 23.0 °F 100% 30.01 in 4.0 mi WNW 21.9 mph 33.4 mph 0.03 in Snow Light Snow
2:35 AM 23.0 °F 6.9 °F 23.0 °F 100% 30.01 in 5.0 mi WNW 24.2 mph 34.5 mph 0.07 in Snow Light Snow
2:55 AM 23.0 °F 7.2 °F 23.0 °F 100% 30.02 in 4.0 mi WNW 23.0 mph 32.2 mph 0.09 in Snow Light Snow
3:15 AM 23.0 °F 7.6 °F 23.0 °F 100% 30.04 in 7.0 mi NW 21.9 mph 32.2 mph N/A Snow Light Snow
3:35 AM 23.0 °F 8.0 °F 21.2 °F 93% 30.05 in 5.0 mi NW 20.7 mph 31.1 mph 0.01 in Snow Light Snow
3:55 AM 23.0 °F 6.9 °F 19.4 °F 86% 30.05 in 5.0 mi NW 24.2 mph 36.8 mph 0.02 in   Mostly Cloudy
4:15 AM 23.0 °F 7.6 °F 21.2 °F 93% 30.06 in 10.0 mi NW 21.9 mph 32.2 mph N/A Rain Light Freezing Rain
4:35 AM 23.0 °F 7.2 °F 19.4 °F 86% 30.07 in 10.0 mi NW 23.0 mph 31.1 mph N/A Rain Light Freezing Rain
4:55 AM 21.2 °F 4.9 °F 19.4 °F 93% 30.07 in 9.0 mi NW 23.0 mph 32.2 mph N/A Snow Light Snow
5:15 AM 21.2 °F 4.9 °F 19.4 °F 93% 30.08 in 3.0 mi NW 23.0 mph 29.9 mph 0.02 in Snow Light Snow
5:35 AM 21.2 °F 4.9 °F 19.4 °F 93% 30.09 in 6.0 mi NW 23.0 mph 29.9 mph 0.05 in Snow Light Snow
5:55 AM 19.4 °F 2.8 °F 19.4 °F 100% 30.10 in 7.0 mi NW 21.9 mph 31.1 mph 0.06 in Snow Light Snow
6:15 AM 19.4 °F 2.1 °F 17.6 °F 93% 30.11 in 8.0 mi NW 24.2 mph 34.5 mph N/A Snow Light Snow
6:35 AM 19.4 °F 2.5 °F 17.6 °F 93% 30.12 in 8.0 mi NW 23.0 mph 32.2 mph 0.02 in Snow Light Snow
6:55 AM 19.4 °F 1.8 °F 17.6 °F 93% 30.13 in 10.0 mi NW 25.3 mph 33.4 mph 0.03 in Snow Light Snow
7:15 AM 19.4 °F 1.8 °F 17.6 °F 93% 30.14 in 10.0 mi NW 25.3 mph 34.5 mph N/A Snow Light Snow
7:35 AM 19.4 °F 3.2 °F 17.6 °F 93% 30.15 in 10.0 mi NW 20.7 mph 33.4 mph N/A Snow Light Snow
7:55 AM 19.4 °F 3.2 °F 17.6 °F 93% 30.15 in 10.0 mi NW 20.7 mph 32.2 mph 0.01 in Snow Light Snow
8:15 AM 19.4 °F 3.2 °F 17.6 °F 93% 30.17 in 7.0 mi NW 20.7 mph 28.8 mph 0.01 in Snow Light Snow
8:35 AM 19.4 °F 2.5 °F 17.6 °F 93% 30.18 in 5.0 mi NW 23.0 mph 28.8 mph 0.04 in Snow Light Snow
8:55 AM 17.6 °F 0.9 °F 15.8 °F 93% 30.19 in 4.0 mi NW 20.7 mph 31.1 mph 0.07 in Snow Light Snow
9:15 AM 17.6 °F 0.5 °F 15.8 °F 93% 30.19 in 4.0 mi NW 21.9 mph 32.2 mph 0.02 in Snow Light Snow
9:35 AM 17.6 °F 1.7 °F 15.8 °F 93% 30.20 in 5.0 mi NW 18.4 mph 28.8 mph 0.05 in Snow Light Snow
9:55 AM 17.6 °F 1.3 °F 15.8 °F 93% 30.21 in 7.0 mi NW 19.6 mph 31.1 mph 0.07 in Snow Light Snow
10:15 AM 17.6 °F 0.9 °F 15.8 °F 93% 30.22 in 5.0 mi NW 20.7 mph 26.5 mph 0.01 in Snow Light Snow
10:35 AM 19.4 °F 4.1 °F 15.8 °F 86% 30.23 in 7.0 mi NW 18.4 mph 27.6 mph 0.04 in Snow Light Snow
10:55 AM 17.6 °F 0.1 °F 14.0 °F 86% 30.23 in 6.0 mi NW 23.0 mph 29.9 mph 0.06 in Snow Light Snow
11:15 AM 17.6 °F 1.3 °F 15.8 °F 93% 30.24 in 7.0 mi NW 19.6 mph 26.5 mph 0.01 in Snow Light Snow
11:35 AM 17.6 °F -0.3 °F 14.0 °F 86% 30.25 in 10.0 mi NW 24.2 mph 28.8 mph 0.02 in Snow Light Snow
11:55 AM 19.4 °F 3.6 °F 14.0 °F 80% 30.25 in 10.0 mi NW 19.6 mph 28.8 mph 0.02 in Snow Light Snow
12:15 PM 19.4 °F 3.6 °F 14.0 °F 80% 30.26 in 10.0 mi NW 19.6 mph - N/A Snow Light Snow
12:35 PM 19.4 °F 2.5 °F 14.0 °F 80% 30.26 in 10.0 mi NNW 23.0 mph 27.6 mph N/A Snow Light Snow
12:55 PM 19.4 °F 4.1 °F 14.0 °F 80% 30.27 in 10.0 mi NW 18.4 mph 28.8 mph N/A   Mostly Cloudy
1:15 PM 21.2 °F 4.9 °F 14.0 °F 74% 30.27 in 10.0 mi NW 23.0 mph 29.9 mph N/A   Mostly Cloudy
1:35 PM 21.2 °F 5.6 °F 14.0 °F 74% 30.27 in 10.0 mi NNW 20.7 mph 28.8 mph N/A   Mostly Cloudy
1:55 PM 23.0 °F 9.6 °F 14.0 °F 68% 30.28 in 10.0 mi NNW 16.1 mph 25.3 mph N/A   Mostly Cloudy
2:15 PM 21.2 °F 6.8 °F 14.0 °F 74% 30.28 in 10.0 mi NW 17.3 mph 27.6 mph N/A   Overcast
2:35 PM 23.0 °F 8.7 °F 14.0 °F 68% 30.28 in 10.0 mi NNW 18.4 mph - N/A   Overcast
2:55 PM 23.0 °F 8.7 °F 14.0 °F 68% 30.28 in 10.0 mi NNW 18.4 mph 26.5 mph N/A   Overcast
3:15 PM 23.0 °F 10.1 °F 14.0 °F 68% 30.28 in 10.0 mi NNW 15.0 mph 26.5 mph N/A   Overcast
3:35 PM 23.0 °F 9.2 °F 14.0 °F 68% 30.28 in 10.0 mi NNW 17.3 mph 24.2 mph N/A   Mostly Cloudy
3:55 PM 23.0 °F 9.2 °F 14.0 °F 68% 30.27 in 10.0 mi NW 17.3 mph 25.3 mph N/A   Overcast
4:15 PM 23.0 °F 8.3 °F 12.2 °F 63% 30.27 in 10.0 mi NW 19.6 mph 26.5 mph N/A   Overcast
4:35 PM 23.0 °F 9.6 °F 12.2 °F 63% 30.27 in 10.0 mi NW 16.1 mph 24.2 mph N/A   Scattered Clouds
4:55 PM 23.0 °F 9.2 °F 12.2 °F 63% 30.28 in 10.0 mi NW 17.3 mph 21.9 mph N/A   Partly Cloudy
5:15 PM 23.0 °F 8.3 °F 12.2 °F 63% 30.28 in 10.0 mi NNW 19.6 mph - N/A   Scattered Clouds
5:35 PM 23.0 °F 10.1 °F 10.4 °F 59% 30.28 in 10.0 mi NW 15.0 mph 20.7 mph N/A   Partly Cloudy
5:55 PM 23.0 °F 9.6 °F 10.4 °F 59% 30.28 in 10.0 mi NNW 16.1 mph 20.7 mph N/A   Clear
6:15 PM 23.0 °F 10.1 °F 10.4 °F 59% 30.28 in 10.0 mi NNW 15.0 mph - N/A   Clear
6:35 PM 23.0 °F 11.1 °F 10.4 °F 59% 30.27 in 10.0 mi NNW 12.7 mph - N/A   Clear
6:55 PM 21.2 °F 8.3 °F 10.4 °F 63% 30.28 in 10.0 mi NNW 13.8 mph - N/A   Clear
7:15 PM 19.4 °F 6.0 °F 8.6 °F 63% 30.27 in 10.0 mi NNW 13.8 mph - N/A   Clear
7:35 PM 19.4 °F 8.6 °F 8.6 °F 63% 30.28 in 10.0 mi NNW 9.2 mph - N/A   Clear
7:55 PM 17.6 °F 7.3 °F 8.6 °F 68% 30.28 in 10.0 mi North 8.1 mph - N/A   Clear
8:15 PM 15.8 °F 6.1 °F 8.6 °F 73% 30.28 in 10.0 mi NNW 6.9 mph - N/A   Clear
8:35 PM 15.8 °F 7.2 °F 8.6 °F 73% 30.29 in 10.0 mi NNW 5.8 mph - N/A   Clear
8:55 PM 14.0 °F - 8.6 °F 79% 30.28 in 10.0 mi Calm Calm - N/A   Clear
9:15 PM 14.0 °F 6.5 °F 8.6 °F 79% 30.28 in 10.0 mi North 4.6 mph - N/A   Clear
9:35 PM 15.8 °F 8.6 °F 8.6 °F 73% 30.27 in 10.0 mi North 4.6 mph - N/A   Clear
9:55 PM 14.0 °F 8.2 °F 8.6 °F 79% 30.27 in 10.0 mi NNW 3.5 mph - N/A   Clear
10:15 PM 14.0 °F 6.5 °F 8.6 °F 79% 30.28 in 10.0 mi NNW 4.6 mph - N/A   Clear
10:35 PM 10.4 °F 2.2 °F 8.6 °F 92% 30.28 in 10.0 mi NW 4.6 mph - N/A   Clear
10:55 PM 10.4 °F - 6.8 °F 85% 30.29 in 10.0 mi Calm Calm - N/A   Clear
11:15 PM 10.4 °F - 8.6 °F 92% 30.29 in 10.0 mi Calm Calm - N/A   Clear
11:35 PM 12.2 °F - 8.6 °F 85% 30.29 in 10.0 mi Calm Calm - N/A   Clear
11:55 PM 14.0 °F - 8.6 °F 79% 30.29 in 10.0 mi Calm Calm - N/A   Clear